sat.trackr.live / text

‹ back to catalog

YAOGAN-28

NORAD 41026 · 2015-064A

PAYLOAD ACTIVE UNKNOWN

§ Identity

Operator
Country
PRC
Launch date
2015-11-08
Launch site
TAISC
Launch vehicle
Mass (kg)
RCS (m²)
4.81

Purposes: earth_obs

External: N2YO · Heavens-Above · Gunter

§ Orbital elements

Epoch: 2026-05-25T04:40:09.247008Z

Period
94.30 min
Inclination
97.3041°
Eccentricity
0.0009158
Mean motion
15.27075436 rev/d
Perigee alt
478.3 km
Apogee alt
490.8 km
Semi-major
6,862.7 km
B*
2.4857e-4
RAAN
283.9348°
Arg perigee
271.6429°
Mean anomaly
88.3761°
Rev number
58,717

§ Raw data

YAOGAN-281 41026U 15064A   26145.19455147  .00006537  00000+0  24857-3 0  99922 41026  97.3041 283.9348 0009158 271.6429  88.3761 15.27075436587171

JSON: /api/v1/satellites/41026 · /tle

For live sub-satellite position, see the globe view (requires WebGL).

§ Visibility from observer

Set your observer location to see the next 7 days of passes ≥ 10°. The values pass through the URL so the page stays shareable.

No JS? Fill the form by hand. The geolocation button needs JavaScript.